Regional Weather Roundup
Issued by NWS

Home | Current Version | Previous Version | Text Only | Print | Product List | Glossary On
Versions: 1 2 3 4 5 6 7 8 9 10 11 12 13 14 15 16 17 18 19 20 21 22 23 24 25 26 27 28
000
ASPQ40 PGUM 240512
RWRPQ
WEATHER ROUNDUP FOR THE MARIANAS AND MICRONESIA
NATIONAL WEATHER SERVICE TIYAN GU
300 PM GSST THU APR 24 2014

GUZ001>004-240600-
MARIANA ISLANDS-

CITY           SKY/WX    TMP DP  RH WIND       PRES   REMARKS
GUAM AIRPORT   CLOUDY    88  72  58 NE14      29.81F HX  94
ANDERSEN AFB   MOSUNNY   84  73  70 NE16      29.82S HX  91
ROTA AIRPORT   MOSUNNY   84  73  70 NE13      29.83F HX  91
TINIAN AP      MOSUNNY   84  72  65 NE15      29.81F
SAIPAN AP      SUNNY     86  73  66 NE16      29.82F HX  93

$$

PMZ161-240600-
REPUBLIC OF PALAU-

CITY           SKY/WX    TMP DP  RH WIND       PRES   REMARKS
KOROR AP       MOSUNNY   88  75  66 E8        29.79F HX  97
KOROR WSO      PTSUNNY   90  75  62 N7        29.79F HX 100

$$

PMZ171>174-240600-
FEDERATED STATES OF MICRONESIA-

CITY           SKY/WX    TMP DP  RH WIND       PRES   REMARKS
YAP AIRPORT    MOSUNNY   88  73  62 NE8       29.79F HX  96
CHUUK AP       CLOUDY    84  79  84 NE12      29.69S HX  96
POHNPEI AP     NOT AVBL
POHNPEI WSO    CLOUDY    84  77  79 NE7       29.75R HX  94
KOSRAE AP      NOT AVBL

$$

PMZ181-240600-
REPUBLIC OF THE MARSHALL ISLANDS-

CITY           SKY/WX    TMP DP  RH WIND       PRES   REMARKS
KWAJALEIN AP   SUNNY     81  72  74 E10       29.78R
MAJURO AP      PTSUNNY   82  75  78 NE9       29.76
MAJURO WSO     PTSUNNY   82  75  78 NE7       29.76R

$$




USA.gov is the U.S. government's official web portal to all federal, state and local government web resources and services.